Flag for Brazil Weather past 2 weeks in São Paulo, São Paulo, Brazil

Now
68 °F

Clear.


Feels Like: 68 °F
Forecast: 65 / 81 °F
Wind: 1 mph from East

Location: Sao Paulo Airport

Current Time: Sep 2, 2014 at 9:34:40 PM

Latest Report: Sep 2, 2014 at 9:00 PM


Visibility: 4 mi

Pressure: 29.98 "Hg

Humidity: 73%

Dew point: 59 °F

Location of São PauloLocation

Historic Weather in São Paulo — Graph

°F

São Paulo temperature yesterday

Maximum temperature yesterday: 79 °F (at 3:00 PM)
Minimum temperature yesterday: 61 °F (at 12:00 AM)
Average temperature yesterday: 69 °F

Past Weeks' High & Low Weather Summary

 TemperatureHumidityPressure
High88 °F (Aug 25, 4:00 PM)83% (Aug 31, 3:00 PM)30.39 "Hg (Aug 31, 3:00 PM)
Low52 °F (Aug 28, 12:00 AM)13% (Aug 24, 3:00 PM)29.95 "Hg (Sep 2, 3:00 PM)
Average66 °F59%30.13 "Hg
* Reported Aug 18 8:00 PM — Sep 2 8:00 PM, São Paulo, Weather by CustomWeather, © 2014

Note: Actual official high and low records may vary slightly from our data, if they occured in-between our weather recording intervals... More about our weather records

Advertising

São Paulo weather history for previous 24 hours

 ConditionsComfort  
Time TempWeatherWind HumidityBarometerVisibility
8:00 PM
Sep 2
66 °FHaze.3 mph78%29.98 "Hg3 mi
7:00 PM64 °FFog.3 mph83%29.98 "Hg3 mi
6:00 PM66 °FClear.8 mph78%29.98 "Hg4 mi
5:00 PM70 °FClear.13 mph69%29.98 "Hg10 mi
4:00 PM81 °FSunny.6 mph48%29.95 "Hg10 mi
3:00 PM81 °FSunny.8 mph48%29.95 "Hg10 mi
2:00 PM79 °FPassing clouds.10 mph51%29.98 "HgN/A
1:00 PM82 °FSunny.5 mph40%30.01 "Hg10 mi
12:00 PM79 °FSunny.6 mph42%30.07 "Hg10 mi
11:00 AM75 °FSunny.5 mph47%30.09 "Hg10 mi
10:00 AM72 °FSunny.7 mph50%30.09 "Hg10 mi
9:00 AM70 °FSunny.6 mph53%30.09 "Hg10 mi
8:00 AM66 °FSunny.2 mph60%30.09 "Hg10 mi
7:00 AM61 °FSunny.2 mph72%30.09 "Hg10 mi
6:00 AM61 °FSunny.2 mph72%30.07 "Hg10 mi
5:00 AM61 °FClear.3 mph77%30.07 "Hg10 mi
4:00 AM61 °FClear.5 mph77%30.07 "Hg10 mi
3:00 AM61 °FClear.3 mph72%30.07 "Hg10 mi
2:00 AM63 °FClear.5 mph73%30.07 "Hg10 mi
1:00 AM64 °FClear.5 mph78%30.07 "Hg10 mi
12:00 AM64 °FClear.2 mph78%30.07 "Hg10 mi
11:00 PM
Sep 1
66 °FClear.5 mph78%30.07 "Hg10 mi
10:00 PM68 °FClear.2 mph73%30.07 "Hg10 mi
9:00 PM68 °FPassing clouds.3 mph73%30.04 "HgN/A
Weather by CustomWeather, © 2014

See weather overviewHow to use our weather pages